User: anonymous   Login
Location: Aulagny
(45.1643°N, 4.3096°E)
Time: 13:39:19
(UTC+00:00)
Language:

Cosmos 1076 Rocket - Orbit

View from above orbital plane
View from above orbital plane
View from above satellite
View from above satellite

Ground track
Ground track

The orbit data is extracted from the following two-line orbital elements,

1 11267U 79011B   19347.79045997 +.00000087 +00000-0 +65758-5 0  9990
2 11267 082.5258 090.6503 0018439 085.2823 275.0500 14.88953368189614
Epoch (UTC): 13 December 2019 18:58:15
Eccentricity: 0.0018439
inclination: 82.5258°
perigee height: 588 km
apogee height: 614 km
right ascension of ascending node: 90.6503°
argument of perigee: 85.2823°
revolutions per day: 14.88953368
mean anomaly at epoch: 275.0500°
orbit number at epoch: 18961

The dashed part of the orbit path shows where the satellite is in the earth's shadow,  

DLR